[[{"header":{"parameterUnit":"m.s-1","parameterCategory":1,"la1":30.2992,"la2":30.254,"lo1":-89.0895,"lo2":-89.0443,"dy":0.0025,"dx":0.0025,"nx":19,"ny":19,"refTime":"2026-04-23T21:00:00:Z","depth":0,"parameterNumber":2,"parameterNumberName":"U-component_of_WINDS"},"data":[0,0,0,0.1438,0.144,0.1528,0.1528,0.1628,0.1629,0,0,0,0,0,0,0,0,0,0,0,0.1405,0.1405,0.1438,0.144,0.1528,0.1528,0.1628,0.1629,0,0,0,0,0,0,0,0,0,0,0,0.1404,0.1405,0.1405,0.144,0.1528,0.1528,0.1628,0.1566,0,0,0,0,0,0,0,0,0,0,0.1482,0.1444,0.1405,0.1405,0.1441,0.1527,0.1528,0.1563,0.1569,0.1583,0,0.1593,0,0.1612,0.1635,0.1635,0,0,0,0.1445,0.1439,0.1469,0.1406,0.1441,0.1527,0.149,0.1567,0.1574,0.1591,0.1594,0.1598,0.1614,0.1635,0.1636,0.1695,0.1695,0,0,0.144,0.1416,0.1464,0.1474,0.146,0.1487,0.1492,0.1571,0.1573,0.1595,0.1601,0.1616,0.1636,0.1636,0.1695,0.1695,0,0,0,0.1423,0.1413,0.1442,0.1469,0.1486,0.1489,0.1495,0.1569,0.1581,0.1602,0.1617,0.1636,0.1637,0.1695,0.1695,0.1673,0,0,0,0.142,0.1402,0.1439,0.1425,0.1484,0.1529,0.1491,0.1575,0.1585,0.1616,0.1636,0.1638,0.1695,0.1695,0.1674,0.1667,0,0,0,0.1401,0.14,0.1411,0.1424,0.1461,0.1528,0.1544,0.1578,0.1594,0.1635,0.1638,0.1695,0.1695,0.1675,0.1668,0.1676,0,0,0,0.1374,0.139,0.141,0.1433,0.146,0.1514,0.1544,0.1586,0.1619,0.1637,0.1695,0.1695,0.1675,0.1669,0.1676,0.1678,0.1677,0,0,0.138,0.1389,0.1405,0.1426,0.147,0.1503,0.1544,0.1597,0.1622,0.1669,0.1671,0.1674,0.1668,0.1676,0.1677,0.1676,0,0,0,0.1399,0.141,0.1427,0.1457,0.1498,0.1532,0.1581,0.1601,0.1642,0.1642,0.168,0.1677,0.1682,0.1685,0.1683,0.169,0.1695,0.1695,0.1695,0.1373,0.1405,0.1433,0.1476,0.1505,0.1556,0.1582,0.1617,0.1641,0.1649,0.1663,0.166,0.1661,0.1661,0.1667,0.1667,0.1667,0.1667,0.1667,0.1385,0.1405,0.1437,0.1476,0.151,0.1542,0.1591,0.1607,0.1642,0.1652,0.1659,0.1666,0.1658,0.1666,0.1665,0.1666,0.1666,0.1666,0.1666,0.1371,0.1387,0.1411,0.1459,0.1491,0.1535,0.1567,0.1597,0.1625,0.1631,0.165,0.165,0.1654,0.1638,0.1638,0.1638,0.1638,0.1638,0.1638,0.1347,0.1375,0.1399,0.1445,0.1468,0.1503,0.1554,0.1578,0.1612,0.1631,0.1632,0.1654,0.1652,0.165,0.1638,0.1638,0.1638,0.1638,0.1638,0.1347,0.1352,0.1389,0.1413,0.1469,0.15,0.1538,0.1584,0.1608,0.1623,0.1645,0.1638,0.1649,0.165,0.165,0.1638,0.1638,0.1638,0.1638,0.1336,0.1345,0.139,0.1426,0.1465,0.1503,0.1544,0.1584,0.1625,0.1642,0.1648,0.1649,0.1649,0.1661,0.1662,0.1661,0.1653,0.1653,0.1653,0.1338,0.1352,0.1381,0.1423,0.1469,0.1507,0.1547,0.1586,0.1634,0.1654,0.1656,0.1655,0.1658,0.1657,0.1676,0.1677,0.1677,0,0]},{"header":{"parameterUnit":"m.s-1","parameterCategory":1,"la1":30.2992,"la2":30.254,"lo1":-89.0895,"lo2":-89.0443,"dy":0.0025,"dx":0.0025,"nx":19,"ny":19,"refTime":"2026-04-23T21:00:00:Z","depth":0,"parameterNumber":3,"parameterNumberName":"V-component_of_WINDS"},"data":[0,0,0,5.0787,5.0787,5.0772,5.0772,5.0757,5.0757,0,0,0,0,0,0,0,0,0,0,0,5.0795,5.0795,5.0787,5.0787,5.0772,5.0772,5.0757,5.0757,0,0,0,0,0,0,0,0,0,0,0,5.0795,5.0795,5.0795,5.0787,5.0772,5.0772,5.0757,5.0767,0,0,0,0,0,0,0,0,0,0,5.0781,5.0792,5.0795,5.0795,5.0787,5.0772,5.0772,5.0767,5.0766,5.0766,0,5.0768,0,5.0763,5.0757,5.0757,0,0,0,5.0784,5.0792,5.0785,5.0795,5.0787,5.0772,5.0778,5.0767,5.0766,5.0765,5.0768,5.0767,5.0762,5.0757,5.0757,5.077,5.0771,0,0,5.0785,5.0794,5.0786,5.0785,5.0788,5.0779,5.0778,5.0766,5.0769,5.0768,5.0767,5.0762,5.0757,5.0757,5.077,5.077,0,0,0,5.0789,5.0795,5.0788,5.0786,5.0783,5.0778,5.0777,5.077,5.0767,5.0767,5.0762,5.0757,5.0756,5.077,5.077,5.0791,0,0,0,5.079,5.0797,5.0789,5.0794,5.0783,5.0776,5.0781,5.0768,5.0766,5.0762,5.0757,5.0756,5.077,5.077,5.079,5.0799,0,0,0,5.0795,5.0798,5.0797,5.0795,5.0789,5.0776,5.0772,5.0767,5.0763,5.0757,5.0756,5.077,5.077,5.0789,5.0797,5.0806,0,0,0,5.0803,5.0814,5.0798,5.0808,5.0789,5.0789,5.0772,5.0772,5.0768,5.0757,5.077,5.077,5.0788,5.0796,5.0805,5.0817,5.0822,0,0,5.0822,5.0816,5.0822,5.0807,5.0813,5.079,5.0799,5.0786,5.0776,5.0773,5.0773,5.079,5.0797,5.0806,5.0847,5.0851,0,0,0,5.0831,5.0835,5.0834,5.0833,5.0824,5.0818,5.0804,5.0799,5.0797,5.0777,5.0795,5.0799,5.0804,5.0809,5.0812,5.0817,5.0773,5.0773,5.0773,5.087,5.0859,5.0867,5.0855,5.0853,5.0839,5.0837,5.0828,5.0815,5.082,5.0819,5.0845,5.0851,5.0854,5.0859,5.0823,5.0823,5.0823,5.0823,5.0898,5.0902,5.0887,5.089,5.0878,5.088,5.0867,5.0858,5.0858,5.0844,5.0848,5.0835,5.0859,5.0863,5.0825,5.0824,5.0824,5.0824,5.0824,5.0923,5.0924,5.0919,5.0917,5.0916,5.0902,5.0903,5.0891,5.088,5.0883,5.0882,5.0882,5.0881,5.0884,5.0884,5.0884,5.0884,5.0884,5.0884,5.0952,5.0946,5.095,5.0943,5.0941,5.0937,5.0924,5.0922,5.0916,5.0907,5.0907,5.0895,5.0863,5.0856,5.0885,5.0885,5.0885,5.0885,5.0885,5.0986,5.0977,5.0982,5.0981,5.0973,5.0974,5.0958,5.0955,5.0951,5.0953,5.094,5.0918,5.0911,5.0908,5.0903,5.0942,5.0942,5.0942,5.0942,5.1009,5.1004,5.1008,5.1007,5.1004,5.0991,5.0998,5.0988,5.0977,5.0974,5.0966,5.0957,5.0955,5.0949,5.0945,5.094,5.0988,5.0988,5.0988,5.103,5.1025,5.1033,5.1023,5.1016,5.1011,5.1017,5.1016,5.1,5.0989,5.0972,5.097,5.0955,5.095,5.0939,5.0934,5.0923,0,0]}]]